Accueil
METAR-TAF:

METAR-TAF

Aéroports :

Brunswick County Airport

Southport, Caroline du Nord, États-Unis

latitude: 33-55-45N, longitude: 078-04-29W, altitude: 8 m

Observation

Le bulletin a été fait il y a 8 minutes, à 20:15 UTC
Vent 5 kt de sud/sud-ouest
Température 13°C
Humidité 41%
Pression 1026 hPa
Visibilité: 16.1 km
Ciel clair

METAR: KSUT 192015Z AUTO 21005KT 10SM CLR 13/00 A3031 RMK AO2 T01250001

Heure: 15:23 (20:23 UTC)


TAF: absent

Observations et prévisions météorologiques de plus de 4000 aéroports (messages METAR et TAF).

Les stations disponibles sont représentées par des disques jaunes et rouges sur la carte.

Passer la souris dessus pour voir le nom de la station.

Cliquer dessus pour voir les observations et prévisions météorologiques.

Pour changer de carte: cliquez sur les boutons verts avec une croix noire pour zoomer, sur le bouton vert avec un tiret pour effectuer un zoom arrière, ou sur les flèches vertes pour les cartes adjacentes.


METAR-TAF: